Location: *
(43.7000°S, 168.7000°W)
Time: 11:27:34
(UTC+00:00)

Cosmos 1758 - Pass Details

Date: 07 July 2020
Orbit: 539 x 563 km, 82.5° (Epoch: 09 August)

Event Time Altitude Azimuth Distance (km) Brightness Sun altitude
Exits shadow 17:35:19 - 198° (SSW) 2,182 6.0 -12.7°
Reaches altitude 10° 17:36:09 10° 201° (SSW) 1,852 5.6 -12.5°
Maximum altitude 17:40:03 46° 273° (W) 759 3.6 -11.9°
Drops below altitude 10° 17:43:56 10° 346° (NNW) 1,838 6.1 -11.2°
Sets 17:46:08 0° 352° (N) 2,727 7.0 -10.8°
